Location: La Silve
(44.2414°N, 5.8889°E)
Time: 04:42:11
(UTC+00:00)

H-2A R/B - Pass Details

Date: 01 December 2020
Orbit: 734 x 836 km, 98.2° (Epoch: 24 January)

Event Time Altitude Azimuth Distance (km) Brightness Sun altitude
Rises 19:07:37 0° 185° (S) 3,321 5.4 -33.1°
Enters shadow 19:08:47 - 188° (S) 2,872 5.0 -33.3°
Exits shadow 19:16:03 36° 290° (WNW) 1,227 3.4 -34.6°
Drops below altitude 10° 19:19:52 10° 332° (NNW) 2,332 4.8 -35.3°
Sets 19:22:18 0° 340° (NNW) 3,248 5.5 -35.8°
